Tracking 18840 objects as of 18-November-2017
HD Live streaming from Space Station
objects crossing your sky now

COSMOS 2157

Track COSMOS 2157 now!
10-day predictions
COSMOS 2157 is classified as:


NORAD ID: 21728
Int'l Code: 1991-068A
Perigee: 1,412.9 km
Apogee: 1,421.1 km
Inclination: 82.6 °
Period: 114.0 minutes
Semi major axis: 7788 km
RCS: 1.0996 m2 (large)
Launch date: September 28, 1991
Source: Commonwealth of Independent States (former USSR) (CIS)
Launch site: PLESETSK MISSILE AND SPACE COMPLEX (PKMTR)
aabbcc
Your satellite tracking list
Your tracking list is empty




NASA's NSSDC Master Catalog

Two Line Element Set (TLE):
1 21728U 91068A   17321.65396172  .00000026  00000-0  84593-4 0  9998
2 21728  82.5771 160.2935 0005247  63.0726 297.0902 12.63172577205298
Source of the keplerian elements: AFSPC